{"data":{"norad_id":65024,"epoch":"2026-09-20T21:59:10.140576Z","epoch_age_seconds":88268,"freshness":"FRESH","line1":"1 65024U 25161K   26263.91608959  .00016336  00000+0  49311-3 0  9997","line2":"2 65024  53.1584 103.5856 0001257  77.1832 282.9311 15.34428217 65268","mean_motion":15.34428217,"eccentricity":0.0001257,"inclination_deg":53.1584,"raan_deg":103.5856,"arg_perigee_deg":77.1832,"mean_anomaly_deg":282.9311,"bstar":0.00049311,"rev_number":6526,"period_min":93.846032290476,"perigee_km":461.75949154556,"apogee_km":463.47925769814,"semimajor_km":6840.7563746219,"source":"CELESTRAK","updated_at":"2026-09-21T09:00:35.493444Z"}}